Location: Unspecified
(41.1637°N, 24.2901°E)
Time: 11:26:57
(UTC+02:00)

ISS - Pass Details

Date: 18 April 2026
Orbit: 416 x 424 km, 51.6° (Epoch: 10 April)

Event Time Altitude Azimuth Distance (km) Brightness Sun altitude
Exits shadow 03:51:23 11° 151° (SSE) 1,447 -1.1 -19.2°
Maximum altitude 03:52:36 12° 129° (SE) 1,354 -1.0 -19.0°
Drops below altitude 10° 03:54:05 10° 103° (ESE) 1,496 -0.4 -18.8°
Sets 03:57:09 0° 73° (ENE) 2,367 1.5 -18.3°
